Hourly Weather Cemsa

Today, 15 June, Tuesday

Time Temperature Precipitation Wind Pressure Humidity
00:00 +11°C° 0.4 mm 3 mps 612 mmHg 85%
01:00 +11°C° 0.4 mm 3 mps 612 mmHg 84%
02:00 +11°C° 0.4 mm 3 mps 611 mmHg 83%
03:00 +10°C° 0 mm 3 mps 611 mmHg 82%
04:00 +12°C° 0.3 mm 2 mps 611 mmHg 82%
05:00 +13°C° 0.3 mm 2 mps 612 mmHg 83%
06:00 +13°C° 0.3 mm 2 mps 612 mmHg 83%
07:00 +15°C° 0.8 mm 2 mps 612 mmHg 78%
08:00 +16°C° 0.8 mm 3 mps 613 mmHg 73%
09:00 +17°C° 0 mm 3 mps 613 mmHg 69%
10:00 +18°C° 0.2 mm 3 mps 614 mmHg 62%
11:00 +19°C° 0.2 mm 3 mps 614 mmHg 56%
12:00 +20°C° 0.2 mm 3 mps 614 mmHg 50%
13:00 +20°C° 0.1 mm 3 mps 614 mmHg 49%
14:00 +21°C° 0.1 mm 3 mps 614 mmHg 49%
15:00 +21°C° 0 mm 3 mps 614 mmHg 48%
16:00 +20°C° 0.1 mm 3 mps 614 mmHg 54%
17:00 +20°C° 0.1 mm 2 mps 614 mmHg 60%
18:00 +19°C° 0.1 mm 2 mps 614 mmHg 65%
19:00 +17°C° 0.1 mm 2 mps 613 mmHg 71%
20:00 +15°C° 0.1 mm 2 mps 613 mmHg 77%
21:00 +13°C° 0.1 mm 2 mps 613 mmHg 83%
22:00 +13°C° 0 mm 2 mps 613 mmHg 81%
23:00 +13°C° 0 mm 2 mps 612 mmHg 79%

Tomorrow, 16 June, Wednesday

Time Temperature Precipitation Wind Pressure Humidity
00:00 +13°C° 0 mm 2 mps 612 mmHg 76%
01:00 +13°C° 0 mm 2 mps 612 mmHg 76%
02:00 +13°C° 0 mm 2 mps 612 mmHg 75%
03:00 +12°C° 0 mm 3 mps 612 mmHg 75%
04:00 +14°C° 0 mm 2 mps 613 mmHg 74%
05:00 +15°C° 0 mm 2 mps 613 mmHg 73%
06:00 +16°C° 0 mm 2 mps 613 mmHg 72%
07:00 +18°C° 0 mm 2 mps 614 mmHg 66%
08:00 +20°C° 0 mm 3 mps 614 mmHg 59%
09:00 +21°C° 0 mm 3 mps 614 mmHg 53%
10:00 +22°C° 0.1 mm 3 mps 615 mmHg 53%
11:00 +22°C° 0.1 mm 3 mps 615 mmHg 53%
12:00 +24°C° 0.1 mm 3 mps 615 mmHg 53%
13:00 +24°C° 0.4 mm 3 mps 615 mmHg 54%
14:00 +24°C° 0.4 mm 3 mps 615 mmHg 55%
15:00 +24°C° 0.4 mm 3 mps 615 mmHg 56%
16:00 +22°C° 0.4 mm 3 mps 614 mmHg 60%
17:00 +21°C° 0.4 mm 2 mps 614 mmHg 65%
18:00 +21°C° 0.4 mm 2 mps 614 mmHg 70%
19:00 +19°C° 0.2 mm 3 mps 614 mmHg 73%
20:00 +17°C° 0.2 mm 3 mps 613 mmHg 77%
21:00 +16°C° 0.2 mm 3 mps 613 mmHg 80%
22:00 +14°C° 0 mm 3 mps 613 mmHg 79%
23:00 +14°C° 0 mm 3 mps 612 mmHg 77%

Day after tomorrow, 17 June, Thursday

Time Temperature Precipitation Wind Pressure Humidity
00:00 +13°C° 0 mm 3 mps 612 mmHg 76%
01:00 +13°C° 0.1 mm 3 mps 612 mmHg 76%
02:00 +13°C° 0.1 mm 3 mps 612 mmHg 76%
03:00 +12°C° 0.1 mm 4 mps 612 mmHg 76%
04:00 +13°C° 0 mm 3 mps 612 mmHg 76%
05:00 +14°C° 0 mm 3 mps 612 mmHg 75%
06:00 +16°C° 0 mm 3 mps 612 mmHg 74%
07:00 +17°C° 0 mm 3 mps 613 mmHg 69%
08:00 +18°C° 0 mm 3 mps 614 mmHg 63%
09:00 +19°C° 0 mm 4 mps 614 mmHg 58%
10:00 +20°C° 0.2 mm 3 mps 614 mmHg 60%
11:00 +20°C° 0.2 mm 3 mps 615 mmHg 63%
12:00 +20°C° 0.2 mm 3 mps 615 mmHg 65%
13:00 +20°C° 0.4 mm 3 mps 615 mmHg 67%
14:00 +20°C° 0.4 mm 2 mps 615 mmHg 69%
15:00 +20°C° 0.4 mm 2 mps 615 mmHg 71%
16:00 +19°C° 0.2 mm 2 mps 615 mmHg 74%
17:00 +18°C° 0.2 mm 2 mps 615 mmHg 77%
18:00 +19°C° 0.2 mm 1 mps 615 mmHg 80%
19:00 +16°C° 0.1 mm 1 mps 615 mmHg 85%
20:00 +15°C° 0.1 mm 1 mps 615 mmHg 89%
21:00 +13°C° 0.1 mm 1 mps 615 mmHg 94%
22:00 +13°C° 0 mm 1 mps 615 mmHg 92%
23:00 +12°C° 0 mm 1 mps 615 mmHg 91%

18 June, Friday

Time Temperature Precipitation Wind Pressure Humidity
00:00 +12°C° 0 mm 1 mps 614 mmHg 90%
01:00 +12°C° 0 mm 1 mps 614 mmHg 90%
02:00 +12°C° 0 mm 1 mps 614 mmHg 90%
03:00 +12°C° 0 mm 1 mps 614 mmHg 89%
04:00 +12°C° 0 mm 1 mps 615 mmHg 88%
05:00 +13°C° 0 mm 1 mps 615 mmHg 87%
06:00 +14°C° 0 mm 1 mps 616 mmHg 86%
07:00 +16°C° 0 mm 1 mps 616 mmHg 80%
08:00 +18°C° 0 mm 1 mps 616 mmHg 73%
09:00 +20°C° 0 mm 1 mps 617 mmHg 67%
10:00 +20°C° 0.2 mm 1 mps 617 mmHg 66%
11:00 +21°C° 0.2 mm 1 mps 617 mmHg 65%
12:00 +21°C° 0.2 mm 2 mps 617 mmHg 64%
13:00 +21°C° 0.4 mm 1 mps 617 mmHg 65%
14:00 +21°C° 0.4 mm 1 mps 617 mmHg 67%
15:00 +21°C° 0.4 mm 1 mps 618 mmHg 68%
16:00 +21°C° 0.3 mm 1 mps 618 mmHg 71%
17:00 +20°C° 0.3 mm 1 mps 618 mmHg 74%
18:00 +20°C° 0.3 mm 1 mps 618 mmHg 76%
19:00 +18°C° 0.1 mm 1 mps 617 mmHg 78%
20:00 +16°C° 0.1 mm 1 mps 617 mmHg 79%
21:00 +14°C° 0.1 mm 1 mps 617 mmHg 80%
22:00 +14°C° 0 mm 2 mps 617 mmHg 79%
23:00 +14°C° 0 mm 2 mps 617 mmHg 78%

19 June, Saturday

Time Temperature Precipitation Wind Pressure Humidity
00:00 +14°C° 0 mm 2 mps 617 mmHg 76%
01:00 +14°C° 0 mm 2 mps 617 mmHg 74%
02:00 +14°C° 0 mm 2 mps 617 mmHg 72%
03:00 +14°C° 0 mm 2 mps 617 mmHg 70%
04:00 +15°C° 0 mm 2 mps 617 mmHg 69%
05:00 +16°C° 0 mm 2 mps 617 mmHg 69%
06:00 +17°C° 0 mm 2 mps 618 mmHg 69%
07:00 +18°C° 0 mm 2 mps 618 mmHg 64%
08:00 +20°C° 0 mm 2 mps 619 mmHg 58%
09:00 +21°C° 0 mm 2 mps 619 mmHg 53%
10:00 +23°C° 0 mm 2 mps 619 mmHg 52%
11:00 +24°C° 0 mm 2 mps 619 mmHg 51%
12:00 +24°C° 0 mm 2 mps 619 mmHg 50%
13:00 +24°C° 0 mm 2 mps 619 mmHg 51%
14:00 +24°C° 0 mm 2 mps 619 mmHg 51%
15:00 +24°C° 0 mm 2 mps 619 mmHg 52%
16:00 +24°C° 0 mm 1 mps 619 mmHg 55%
17:00 +23°C° 0 mm 1 mps 619 mmHg 58%
18:00 +22°C° 0 mm 1 mps 619 mmHg 61%
19:00 +19°C° 0 mm 2 mps 619 mmHg 61%
20:00 +17°C° 0 mm 2 mps 618 mmHg 60%
21:00 +14°C° 0 mm 3 mps 618 mmHg 60%
22:00 +14°C° 0 mm 3 mps 618 mmHg 58%
23:00 +14°C° 0 mm 3 mps 618 mmHg 57%

20 June, Sunday

Time Temperature Precipitation Wind Pressure Humidity
00:00 +14°C° 0 mm 3 mps 618 mmHg 55%
01:00 +14°C° 0 mm 3 mps 618 mmHg 57%
02:00 +14°C° 0 mm 3 mps 618 mmHg 58%
03:00 +14°C° 0 mm 3 mps 617 mmHg 60%
04:00 +14°C° 0 mm 3 mps 618 mmHg 59%
05:00 +16°C° 0 mm 3 mps 618 mmHg 58%
06:00 +17°C° 0 mm 3 mps 618 mmHg 57%
07:00 +19°C° 0 mm 3 mps 619 mmHg 50%
08:00 +21°C° 0 mm 3 mps 619 mmHg 44%
09:00 +24°C° 0 mm 3 mps 619 mmHg 37%
10:00 +25°C° 0 mm 3 mps 619 mmHg 38%
11:00 +25°C° 0 mm 3 mps 620 mmHg 38%
12:00 +26°C° 0 mm 3 mps 620 mmHg 38%
13:00 +26°C° 0 mm 3 mps 620 mmHg 39%
14:00 +26°C° 0 mm 3 mps 620 mmHg 41%
15:00 +26°C° 0 mm 3 mps 619 mmHg 42%
16:00 +25°C° 0 mm 3 mps 619 mmHg 46%
17:00 +24°C° 0 mm 3 mps 619 mmHg 51%
18:00 +24°C° 0 mm 3 mps 619 mmHg 55%
19:00 +21°C° 0 mm 3 mps 619 mmHg 57%
20:00 +19°C° 0 mm 3 mps 618 mmHg 59%
21:00 +17°C° 0 mm 3 mps 618 mmHg 61%
22:00 +16°C° 0 mm 3 mps 618 mmHg 60%
23:00 +16°C° 0 mm 3 mps 618 mmHg 59%
Show more

We Need Your Consent

Meteoprog and our Service Providers may store and access personal data such as cookies, device identifiers or other similar technologies on your device and process such data to personalise content and ads, as well as provide social media features and to analyse the traffic.

  • Store and/or access information on your device

    Cookies, device identifiers or other information can be stored or accessed on your device for the purposes indicated above.

  • Personalised ads and content, ad and content measurement, audience insights, and products development

    Ads and content can be personalised based on a profile. More data can be added to better personalise ads and content. Ad and content performance can be measured. Insights about the audience who saw the ads and content can be derived. Such data can be used to develop or improve user’s experience, systems and software.

By clicking ‘I Agree’ you will allow the use of indicated cookies, device identifiers, web beacons or other similar technologies. Your settings can be changed in the browser on your device.

For certain purposes, legitimate interests may be relied on, rather than consent. You can read more about this in our Privacy and Cookie Policy.